Location: Makakahi
(40.6833°S, 175.6000°E)
Time: 23:06:14
(UTC+00:00)

FENGYUN 1C DEB - Pass Details

Date: 05 December 2024
Orbit: 841 x 907 km, 98.9° (Epoch: 11 January)

Event Time Altitude Azimuth Distance (km) Brightness Sun altitude
Rises 08:18:57 0° 155° (SSE) 3,511 ? -7.4°
Reaches altitude 10° 08:21:45 10° 143° (SE) 2,553 ? -7.8°
Maximum altitude 08:26:32 28° 85° (E) 1,596 ? -8.5°
Drops below altitude 10° 08:31:12 10° 28° (NNE) 2,490 ? -9.2°
Enters shadow 08:31:32 - 26° (NNE) 2,597 ? -9.3°
